Theta_e
312 310 312 311 312 312 312 312 312 312 313 313 313 313 313 314 312 313 315 316 316 317 317 317 317 315 314 313 311 310 309 308 306 306 304 303 303 301 300 300 300 299 299 298
312 312 311 311 311 312 312 313 314 313 313 311 312 312 312 312 313 313 314 315 316 317 317 317 316 316 314 314 312 310 309 308 307 307 306 304 304 301 300 300 299 299 298 298
312 312 313 313 313 314 313 313 313 312 312 310 310 311 311 311 313 314 314 316 316 316 315 315 315 315 314 313 312 311 310 308 307 306 304 303 300 299 298 298 297 297 297 297
311 312 312 312 313 313 314 311 312 312 313 314 310 314 311 311 311 311 313 314 316 317 316 315 314 314 314 313 312 311 309 308 307 306 304 304 304 303 303 300 299 299 296 296
312 312 311 312 313 310 313 311 311 312 311 312 313 312 313 310 310 310 311 315 317 316 315 314 314 314 314 313 312 311 309 307 307 307 305 304 303 302 301 300 299 298 296 295
310 311 312 311 310 311 310 312 311 310 308 312 311 313 314 309 312 310 311 313 316 316 314 314 314 314 313 312 310 309 309 307 307 306 305 305 304 302 300 299 298 297 296 295
309 309 309 310 311 309 311 312 312 312 310 314 310 311 314 311 309 310 311 313 316 315 313 313 313 313 313 312 310 309 307 307 306 305 305 305 304 303 301 299 298 297 296 295
311 311 309 308 311 311 309 312 314 313 312 313 308 310 312 311 312 313 314 316 315 312 313 313 313 312 312 311 310 308 307 307 307 306 306 305 304 302 301 300 299 297 296 296
310 311 309 307 309 311 310 311 311 313 305 308 313 310 309 310 308 308 309 311 310 312 313 312 312 311 311 310 310 309 309 308 308 308 306 305 305 304 303 301 299 297 295 294
310 312 308 306 307 307 308 307 312 312 314 312 312 310 312 312 311 310 307 306 310 311 311 311 311 310 310 310 310 310 309 309 308 307 306 305 304 304 303 301 299 298 294 293
308 311 310 305 306 308 305 308 308 309 312 314 314 313 308 309 310 310 308 309 309 310 311 311 311 311 310 309 310 310 309 308 307 307 307 306 304 303 301 301 299 297 294 292
309 311 313 311 306 306 307 310 311 312 313 308 311 313 310 310 309 310 310 312 312 312 311 311 311 311 310 310 309 310 309 308 308 308 306 305 303 302 300 299 299 296 293 292
311 311 314 312 309 304 306 306 309 309 309 312 313 313 311 311 308 308 307 310 312 311 312 311 311 311 311 310 310 310 309 309 309 308 306 304 303 301 300 299 297 294 292 291
312 311 314 317 314 310 310 309 308 308 310 311 312 312 312 312 312 312 312 311 311 311 310 311 311 310 310 310 310 310 310 309 308 307 305 303 302 301 299 298 296 293 292 291
312 312 311 312 313 313 313 312 311 311 311 312 311 309 310 310 310 310 310 310 310 310 311 312 312 310 310 311 310 310 309 308 308 307 305 304 302 300 298 297 295 293 291 290
309 312 312 313 311 311 313 312 312 311 311 311 311 312 311 310 310 310 310 310 309 309 309 309 310 310 311 312 311 310 310 309 307 306 305 303 302 300 298 297 294 292 291 290
311 310 312 314 311 312 313 312 312 312 311 311 311 310 310 310 310 310 311 310 310 310 309 310 310 311 312 311 310 309 309 308 308 306 304 303 301 299 297 295 293 291 290 289
308 309 311 314 312 314 310 309 310 311 310 310 310 310 310 310 310 310 310 310 310 310 310 310 311 311 311 311 309 308 308 308 307 306 303 301 299 297 295 294 292 291 289 288
308 310 312 313 314 313 311 309 309 309 310 309 309 309 309 310 310 309 309 307 308 309 310 311 311 311 310 309 309 308 308 308 307 305 303 300 298 297 295 293 291 289 289 288
308 310 312 313 315 315 311 309 309 309 312 300 303 301 300 303 308 308 303 303 304 304 305 307 309 310 309 308 308 308 308 308 307 307 304 300 297 295 293 291 290 288 287 286
305 307 310 311 312 312 302 301 302 311 303 298 299 299 299 301 301 300 301 300 300 301 302 304 303 304 305 307 307 307 307 307 306 304 301 299 296 294 292 290 289 287 286 284
297 299 301 302 309 311 297 299 298 295 294 295 297 296 297 297 297 298 299 299 298 299 299 300 303 305 302 301 302 306 306 305 304 302 298 296 294 292 290 289 288 287 285 284
295 297 293 292 296 294 295 292 291 293 296 296 296 296 295 294 295 295 297 296 297 298 299 300 300 303 305 304 301 300 299 299 301 299 296 293 290 289 288 288 286 284 283 283
288 289 290 289 291 290 290 290 291 291 290 291 291 290 290 291 291 292 293 294 295 296 297 297 299 300 301 303 303 304 303 303 300 296 293 291 288 287 287 286 285 284 283 282
289 289 287 288 289 289 290 290 289 288 288 288 287 286 287 288 289 289 290 290 292 292 294 295 296 298 298 301 302 302 303 303 300 297 292 289 286 285 285 284 284 283 283 288
289 289 289 288 289 288 288 287 285 286 283 282 281 282 282 281 282 283 284 285 287 289 291 292 292 293 294 295 297 300 301 301 300 299 297 297 292 287 284 282 281 281 283 283
Wind_Speed
10 5 10 23 15 12 5 6 7 9 8 7 13 17 21 26 19 28 36 40 43 45 49 44 40 39 41 42 41 42 43 42 39 39 41 41 41 39 38 36 34 32 30 27
3 12 18 7 8 12 12 18 19 13 15 10 10 18 13 13 21 25 33 39 45 50 52 47 38 38 43 45 45 44 44 43 42 40 41 42 41 39 38 36 36 34 32 28
19 8 18 14 9 8 17 13 18 15 7 6 8 11 9 12 25 28 33 42 48 49 46 39 32 35 41 47 47 45 44 41 42 41 41 42 40 39 40 42 40 37 34 31
11 18 14 7 8 14 23 9 12 9 3 14 6 19 7 8 16 14 29 35 42 46 41 34 28 34 40 46 46 43 41 40 41 41 42 44 45 45 47 45 41 38 36 33
10 3 6 13 23 9 19 4 9 3 5 5 6 7 4 8 10 12 15 34 43 43 38 24 26 31 36 45 47 43 40 39 40 41 42 43 45 46 44 41 39 38 38 36
12 2 4 7 1 5 3 2 2 2 2 11 9 11 13 7 13 7 17 33 42 41 29 21 23 31 37 44 45 43 40 41 41 42 42 42 44 45 44 43 41 41 39 37
4 13 10 6 3 1 3 5 3 3 1 11 12 11 25 8 8 14 17 32 35 36 20 20 23 30 34 40 42 42 41 42 43 44 43 43 42 42 42 43 43 43 42 40
3 13 10 7 19 9 9 14 7 8 6 13 4 8 7 14 18 25 33 35 34 20 20 21 23 26 30 34 39 41 41 42 45 45 45 43 42 43 41 42 45 46 43 40
4 8 2 1 0 10 5 7 12 3 2 2 12 14 9 6 9 10 22 29 20 25 25 24 21 24 27 32 34 36 38 41 45 46 46 46 44 44 43 43 45 45 42 38
8 10 3 1 2 3 3 0 2 3 4 7 15 8 15 6 17 17 10 13 26 22 23 21 20 21 25 26 27 31 36 40 40 43 47 49 48 45 43 43 44 44 41 40
3 6 7 3 8 8 1 4 5 3 4 13 17 15 7 8 7 10 11 20 19 19 20 22 19 19 21 21 23 28 32 36 38 40 44 50 51 49 48 44 43 43 42 42
3 1 3 11 7 4 5 12 17 13 19 3 5 15 4 12 9 5 3 6 9 12 14 13 16 19 21 19 23 25 31 36 34 41 46 48 51 49 48 46 44 43 42 41
5 3 7 7 10 2 7 6 10 7 3 17 14 20 3 13 11 13 11 17 21 15 16 18 17 21 25 25 28 30 31 33 37 42 45 47 48 48 49 47 45 41 39 40
13 10 13 19 19 3 4 11 12 10 10 18 21 30 34 32 30 26 31 31 28 35 29 28 29 33 28 29 29 34 37 38 40 42 44 45 46 47 48 47 45 40 38 40
11 11 18 27 30 27 31 32 31 25 21 13 28 20 29 37 24 24 32 31 25 30 29 29 28 26 34 42 39 36 37 38 39 42 43 45 44 46 47 47 44 39 37 39
10 16 15 20 26 30 33 33 33 32 36 28 34 34 34 39 50 37 46 40 28 34 38 41 42 44 46 45 37 37 35 35 37 41 43 43 43 45 47 47 44 40 38 38
16 10 12 25 22 25 20 32 37 36 29 22 24 33 37 35 31 35 44 30 30 37 40 36 40 46 43 38 31 32 32 30 34 40 42 43 42 43 46 45 41 39 39 40
15 12 9 15 13 21 18 18 28 33 31 30 30 33 32 31 45 43 41 38 39 36 35 35 37 43 41 39 28 24 27 28 30 36 41 42 41 42 45 42 41 39 40 40
22 20 11 11 13 13 5 9 14 17 27 25 25 25 25 37 42 37 28 32 37 42 43 43 41 44 38 30 25 24 25 26 30 35 38 40 40 42 44 43 42 42 41 41
13 16 16 15 21 21 15 12 22 19 20 25 14 18 19 23 7 6 38 37 40 36 26 34 37 38 33 26 23 24 26 25 26 30 33 35 37 40 41 40 40 38 39 39
8 9 17 17 19 8 11 17 19 7 11 26 17 16 19 9 9 24 31 42 41 41 41 36 30 29 26 26 23 21 20 21 25 29 31 34 37 39 39 39 38 38 42 41
5 4 9 7 15 24 27 9 9 15 29 30 23 33 28 26 26 28 34 39 46 48 44 41 37 31 24 18 18 19 19 19 22 29 34 36 37 39 41 39 39 42 44 41
7 3 5 6 10 25 11 24 31 18 16 22 23 28 29 32 30 30 30 32 35 39 42 40 32 31 31 29 25 24 24 22 23 30 35 37 38 40 39 41 43 46 46 43
6 8 7 14 3 23 37 25 21 19 24 24 24 30 30 34 35 37 35 32 35 35 34 31 33 34 35 36 37 34 27 28 30 31 36 38 40 42 41 43 45 49 47 42
11 13 8 17 18 23 24 27 27 34 31 27 32 36 34 27 31 33 37 37 35 36 36 32 32 37 41 34 36 40 42 36 31 33 37 38 40 42 44 46 51 51 46 39
17 17 12 18 25 18 26 30 28 24 23 30 30 31 35 34 34 36 38 38 37 35 36 37 36 38 43 43 40 38 38 40 40 40 42 43 45 46 48 51 51 48 42 42
Wind_Direction
197 151 209 224 209 232 232 261 239 265 252 179 228 235 246 261 240 247 255 261 264 266 270 268 265 254 245 239 235 234 232 229 227 227 224 225 225 226 231 232 234 235 238 239
249 221 227 239 205 230 244 259 268 278 264 202 246 245 243 255 254 237 243 250 256 264 268 269 262 256 239 236 232 231 233 232 229 230 229 228 230 229 234 237 237 236 238 238
226 228 221 225 232 262 244 244 260 265 301 250 296 267 232 248 247 252 249 255 263 264 263 264 256 247 237 228 230 231 233 233 231 230 228 228 227 229 231 232 234 235 236 236
249 242 238 203 223 210 263 225 244 244 236 270 151 291 231 242 248 247 252 252 255 255 260 263 252 238 232 232 229 231 232 232 230 230 228 228 229 228 231 234 236 238 236 236
231 235 220 234 235 190 257 223 239 240 240 313 176 285 231 187 241 251 249 248 255 262 266 255 241 236 234 229 226 228 231 231 229 229 230 229 232 234 238 239 239 239 237 236
249 175 233 214 125 189 123 74 355 30 80 265 174 202 261 192 219 244 246 250 258 263 255 249 236 222 224 224 224 227 229 228 227 228 230 232 234 236 235 236 237 236 236 235
301 235 213 163 182 222 155 100 295 313 346 251 186 210 253 290 249 220 232 239 239 246 239 222 215 213 221 221 222 226 229 228 227 229 231 234 235 238 239 240 241 238 236 233
244 290 160 186 208 193 195 202 184 206 233 277 136 245 256 214 230 238 242 240 234 218 217 219 223 222 221 222 223 224 225 227 229 230 232 234 237 240 240 241 243 243 242 241
231 257 300 92 272 168 187 182 228 299 126 26 265 270 290 241 247 248 238 236 224 223 217 215 218 223 225 224 227 227 228 230 232 233 234 235 237 239 241 241 242 244 245 241
229 257 198 171 236 266 159 79 109 236 209 246 261 262 265 273 270 259 265 216 236 220 214 217 222 228 230 228 230 233 233 237 239 240 239 240 240 240 241 242 243 245 242 238
323 266 257 157 204 183 86 247 234 293 193 250 263 271 217 242 248 258 246 234 223 220 231 235 229 228 230 228 228 235 239 241 240 243 243 243 243 241 240 243 243 244 240 237
155 262 296 250 297 272 254 229 228 241 251 240 270 262 185 252 233 186 313 321 263 243 238 234 238 235 231 229 234 241 243 243 254 252 248 246 244 244 242 242 243 242 237 234
165 160 243 287 289 231 217 222 230 253 281 249 252 260 165 255 272 307 290 281 269 235 257 255 236 239 248 246 255 257 262 267 261 254 252 247 245 244 241 241 242 239 236 234
195 198 232 246 236 197 237 259 242 233 253 258 250 263 277 265 263 272 273 264 253 274 272 265 261 246 243 254 259 266 264 263 261 254 251 249 247 246 242 240 240 236 233 232
184 232 221 235 241 244 251 255 255 250 240 238 260 252 263 270 270 273 276 264 262 266 266 258 248 255 265 277 272 269 266 262 260 253 249 249 248 245 241 239 237 234 231 230
193 243 233 231 227 233 244 245 251 254 255 248 246 257 254 268 274 273 265 263 264 262 259 261 268 271 271 271 266 265 263 262 259 254 251 247 244 243 240 238 233 229 228 227
218 210 222 249 233 242 246 239 240 245 247 245 244 244 256 265 261 261 271 281 269 263 261 263 268 269 267 265 261 258 251 248 250 252 250 246 242 240 237 234 229 226 226 225
276 263 245 247 237 231 235 235 237 244 247 249 246 248 249 257 270 273 278 272 273 269 267 266 268 272 267 272 258 241 239 243 248 250 246 242 239 236 235 231 226 224 222 222
230 241 252 259 252 271 340 235 218 221 244 256 274 265 271 275 271 280 305 334 308 293 286 281 279 280 283 265 248 242 240 239 238 240 242 240 237 236 233 227 223 220 217 213
259 246 246 248 254 258 263 272 268 247 260 360 9 4 354 344 304 307 342 341 346 354 326 305 291 286 281 263 241 236 236 239 239 241 237 236 235 233 230 226 223 221 218 215
302 286 254 260 269 267 12 360 313 241 357 334 327 358 344 326 292 302 327 329 333 335 338 347 336 308 279 256 237 233 240 253 251 245 237 233 230 228 225 222 220 219 214 211
279 297 284 311 262 254 10 353 357 321 304 309 316 327 314 304 303 300 302 309 314 315 323 330 326 329 310 275 254 248 257 261 256 249 240 233 228 222 219 217 217 210 210 211
285 344 319 321 312 308 321 311 307 306 310 317 311 312 316 309 316 315 306 308 306 308 308 312 311 315 309 308 299 275 268 265 263 252 243 235 228 223 218 213 211 206 206 206
275 282 293 315 281 296 302 309 313 350 344 328 313 307 305 312 312 309 310 305 306 305 302 304 299 292 285 291 291 287 285 280 276 262 247 237 229 222 216 212 207 205 205 202
266 296 274 283 282 291 295 311 323 323 317 307 305 311 308 313 306 305 302 301 297 296 294 294 290 291 289 285 279 279 274 264 252 255 252 242 232 227 218 211 206 203 204 207
260 259 268 275 291 302 297 306 315 305 320 313 313 307 307 310 307 305 300 299 296 296 292 290 291 287 283 284 278 271 268 258 256 251 245 244 239 228 220 209 200 202 203 207